Starlink 35623

operational
NORAD ID: 66138 Int'l Des: 2025-237 Owner: SPXS Country: US Constellation: starlink
LEOCIRCULAR

About Starlink 35623

Description loading...

Live Position

Loading 3D Globe...

Upcoming Passes

Altitude History

Altitude vs Time

uPlot chart will show altitude changes over time

Two-Line Element Set

1 66138C 25237AA 25298.72062500 -.01209900 00000+0 -18414-2 0 2985
2 66138 53.1547 319.2545 0000643 87.7538 98.9459 16.04960539 19
Epoch: Oct 25, 2025 • Age: 145 hours

Current Status

Altitude 287.3 km
Velocity 7.74 km/s
Sub-Earth Point 34.51°N, 33.59°E
Launch Date Oct 22, 2025
Age 9 days
Type internet

Technical Details

Classification Payload
Mass 575.00 kg
Dry Mass 530.00 kg
Total Mass 575.00 kg
Length 0.30 m
Diameter 4.10 m
Span 29.00 m
Shape Box + pan
Manufacturer SPXS
Bus Type Starlink V2MO
Phase Status In Orbit
Owner/State SPXS/US

Large Constellations

Loading constellations...